Weather History for KITH - December, 2013

Change the Weather History Date:

Tuesday, December 17, 2013

  Actual Average Record
Temperature  
Mean Temperature 13 °F -  
Max Temperature 24 °F - - ()
Min Temperature 2 °F - - ()
Degree Days  
Heating Degree Days 52    
Moisture  
Dew Point 12 °F    
Average Humidity 87    
Maximum Humidity 92    
Minimum Humidity 81    
Precipitation  
Precipitation 0.00 in - - ()
Sea Level Pressure  
Sea Level Pressure 30.03 in    
Wind  
Wind Speed 7 mph (SE)    
Max Wind Speed 15 mph    
Max Gust Speed -    
Visibility 7 miles    
Events Snow    
T = Trace of Precipitation, MM = Missing Value Source: NWS Daily Summary

Daily Weather History Graph

Daily Weather History Graph

Search for Another Location

Airport or City:

Trip Planner

Search our weather history database for the weather conditions in past years. The results will help you decide how hot, cold, wet, or windy it might be!

Date:

Astronomy

Dec. 17, 2013 Rise Set
Actual Time 7:29 AM EST 4:34 PM EST
Civil Twilight 6:57 AM EST 5:06 PM EST
Nautical Twilight 6:22 AM EST 5:41 PM EST
Astronomical Twilight 5:48 AM EST 6:16 PM EST
Moon 5:13 PM EST (12/17) 7:23 AM EST (12/17)
Length of Visible Light 10h 08m
Length of Day
9h 04m
Full, 100% of the Moon is Illuminated
Dec 17
Full
Dec 25
Last Quarter
Jan 1
New
Jan 7
First Quarter
Jan 15
Full

Hourly Weather History & Observations

Time (EST) Temp. Windchill Dew Point Humidity Pressure Visibility Wind Dir Wind Speed Gust Speed Precip Events Conditions
12:56 AM 3.0 °F -8.0 °F 0.1 °F 88% 30.19 in 10.0 mi East 5.8 mph - N/A   Clear
1:56 AM 2.1 °F -9.0 °F -1.8 °F 83% 30.16 in 10.0 mi East 5.8 mph - N/A   Clear
2:56 AM 2.1 °F -10.4 °F -0.9 °F 87% 30.15 in 10.0 mi East 6.9 mph - N/A   Clear
3:56 AM 6.1 °F -4.3 °F 2.1 °F 84% 30.12 in 10.0 mi East 5.8 mph - N/A   Overcast
4:14 AM 6.8 °F -3.5 °F 3.2 °F 85% 30.05 in 10.0 mi East 5.8 mph - N/A   Overcast
4:56 AM 8.1 °F -2.0 °F 4.1 °F 84% 30.11 in 10.0 mi East 5.8 mph - N/A   Overcast
5:41 AM 10.4 °F -1.5 °F 6.8 °F 85% 30.02 in 1.8 mi ESE 8.1 mph - 0.00 in Snow Light Snow
5:56 AM 12.0 °F 1.5 °F 9.1 °F 88% 30.08 in 2.0 mi ESE 6.9 mph - 0.00 in Snow Light Snow
6:06 AM 12.2 °F 0.7 °F 10.4 °F 92% 30.01 in 3.0 mi ESE 8.1 mph - 0.00 in Snow Light Snow
6:13 AM 12.2 °F 1.7 °F 10.4 °F 92% 30.01 in 3.0 mi SE 6.9 mph - 0.00 in Snow Light Snow
6:14 AM 12.2 °F 1.7 °F 10.4 °F 92% 30.01 in 3.0 mi SE 6.9 mph - 0.00 in Snow Light Snow
6:56 AM 14.0 °F -0.2 °F 11.1 °F 88% 30.06 in 3.0 mi SE 12.7 mph - 0.00 in Snow Light Snow
7:56 AM 15.1 °F 1.1 °F 11.1 °F 84% 30.04 in 2.0 mi SE 12.7 mph - 0.00 in Snow Light Snow
8:56 AM 16.2 °F 2.5 °F 12.0 °F 84% 30.04 in 7.0 mi SSE 12.7 mph - 0.00 in   Overcast
9:56 AM 18.1 °F 4.4 °F 14.0 °F 84% 30.01 in 7.0 mi South 13.8 mph - N/A   Overcast
10:56 AM 19.0 °F 5.0 °F 15.1 °F 85% 30.03 in 5.0 mi South 15.0 mph - 0.00 in Snow Light Snow Showers
11:56 AM 20.1 °F 8.8 °F 16.2 °F 85% 30.01 in 7.0 mi South 10.4 mph - 0.00 in   Overcast
12:56 PM 21.0 °F 8.6 °F 17.1 °F 85% 29.99 in 7.0 mi South 12.7 mph - 0.00 in   Overcast
1:56 PM 22.1 °F 10.6 °F 18.1 °F 85% 29.98 in 6.0 mi SSW 11.5 mph - N/A   Overcast
2:56 PM 23.0 °F 17.0 °F 19.0 °F 85% 29.98 in 6.0 mi South 4.6 mph - 0.00 in   Overcast
3:56 PM 24.1 °F 17.0 °F 19.0 °F 81% 29.98 in 10.0 mi SSE 5.8 mph - 0.00 in   Mostly Cloudy
4:56 PM 24.1 °F 17.0 °F 19.0 °F 81% 29.98 in 10.0 mi South 5.8 mph - N/A   Overcast
5:56 PM 23.0 °F - 19.0 °F 85% 29.98 in 10.0 mi Calm Calm - N/A   Overcast
6:56 PM 22.1 °F - 19.0 °F 88% 30.00 in 10.0 mi Calm Calm - N/A   Overcast
7:56 PM 22.1 °F 17.4 °F 19.0 °F 88% 30.00 in 10.0 mi SSE 3.5 mph - N/A   Overcast
8:56 PM 21.0 °F 16.2 °F 18.1 °F 89% 29.99 in 10.0 mi ESE 3.5 mph - N/A   Mostly Cloudy
9:56 PM 19.0 °F 13.9 °F 17.1 °F 92% 29.99 in 10.0 mi SSE 3.5 mph - N/A   Mostly Cloudy
10:56 PM 16.2 °F - 13.1 °F 88% 29.98 in 8.0 mi Calm Calm - N/A   Scattered Clouds
11:56 PM 14.0 °F - 12.0 °F 92% 29.98 in 8.0 mi Calm Calm - N/A   Overcast